Showing default

ASTROCAST-0203, 48955

Orbit data source: Space-Track

ASTROCAST-0203, 48955 is a payload satellite owned by Astrocast (CH) in SSO that was launched on Wed, 30 Jun 2021 UTC via an FALCON 9 launch vehicle from the Air Force Eastern Test Range (AFETR). Payload-class satellites include a variety of spacecraft equipped with specific instruments for various scientific and technological missions. These include communications satellites like Starlink; space stations such as the ISS; scientific satellites like the Hubble; Earth observation satellites from companies like Planet Labs, Umbra, and HawkEye 360; GPS; miniature CubeSats for education and research; and military/defense satellites.

Not visible in the next 10 days
Identifier
48955, 2021-059CE
Orbit
SSO
Country
Flag of UnknownUnknown / SWTZ
Related business
Manufacturer
Astrocast
Mission
Operational Commercial Communications
Bus & Motor
CUBESAT 3U, Unknown motor
Mass
5 kg wet, 5 kg dry
Launch date (UTC)
2021-06-30 (4 years ago)
Launch vehicle
FALCON 9
Launch site
Air Force Eastern Test Range (AFETR)
Object type
Payload
Rocket body
Debris
Shape & HBR
Box, 0.1 m
Radar Cross Section
0.035 m², Medium (>0.1 m² and < 1m²)

Expand to show TLE details & history
Last TLE update: 16 hours ago

TLE from 16 hours ago
0 ASTROCAST-0203
1 48955U 21059CE  25311.03271384  .00073405  00000-0  53658-3 0  9997
2 48955  97.6508 131.1948 0003397 153.4048 206.7389 15.73003898243572
Epoch: 2025-11-07T00:47Z
TLE epoch observation values (Epoch: 2025-11-07T00:47:06.475Z)
Latitude
-0.00013°
Longitude
72.93534°
Altitude
355.514 km
Speed
7.695 km/s
True Right ascension
08h 44m 46s
True Declination
0° 00' 00"
Sunlit
Object was in daylight at epoch
Visualization orbit readout
Latitude
Unknown
Longitude
Unknown
Altitude
Unknown
Speed
Unknown
Apparent Right ascension
Unknown
Apparent Declination
Unknown
Sunlit
N/A
Visualization observer readout
Local Sidereal Time
13:05:37
Azimuth
Unknown
Elevation
Unknown
Doppler factor
Unknown
Orbital elements
Apogee altitude
349.508 km
Perigee altitude
344.939 km
Semi-major axis
6,725.361 km
Eccentricity
0.00034
Inclination
97.6508°
RAAN
131.1948°
Arg. of periapsis
153.4048°
True anomaly
206.72139°
Mean anomaly
206.7389°
Eccentric anomaly
206.73015°
Mean motion
3.93523 °/min
Orbital period
91.48 mins
BSTAR
0.00053658
Loading maneuver chart data...
Computing Atmospheric mass density...
Loading historical data...
Loading historical data...
Loading historical data...
Loading historical data...
Loading historical data...
Loading historical data...
Loading historical data...

Documentation

Showing up to 5 results
|